Probability
0 0 0 0 0 0 0 0 0 0 0 0 0 0 0 0 0 6 10 13 23 32 48 61 68 68 65 58 61 65 61 68 77 68 52 45 48 42 48 48 45 42 42 35 32 29 32 23 23
0 0 0 0 0 0 0 0 0 0 0 0 0 0 0 6 10 6 10 13 16 26 35 55 61 65 61 58 58 58 58 58 61 61 58 55 58 52 45 48 48 39 45 42 42 42 32 26 19
0 0 0 0 0 0 0 0 0 0 0 0 0 0 0 0 6 13 13 13 16 16 26 45 55 58 58 58 55 58 58 58 55 58 61 55 55 52 52 48 48 45 39 35 42 42 26 23 16
0 0 0 0 0 0 0 0 0 0 0 0 0 0 0 0 6 10 13 16 13 19 29 39 45 45 42 45 45 48 52 55 55 55 65 58 48 48 48 45 45 45 42 45 42 32 23 19 16
0 0 0 0 0 0 0 0 0 0 0 0 0 3 0 3 6 13 13 13 13 19 23 29 35 35 42 42 42 42 42 42 45 45 48 55 48 39 45 45 45 42 39 39 35 32 26 16 16
0 0 0 0 0 0 0 0 0 0 0 0 0 0 3 6 10 6 13 13 16 16 23 26 26 26 32 32 32 32 35 35 39 35 39 42 58 58 55 58 48 42 39 39 32 26 32 19 13
0 0 0 0 0 0 0 0 0 0 0 0 0 0 6 6 6 6 6 16 16 16 16 19 23 23 26 23 26 29 29 29 29 35 26 26 32 45 58 55 52 45 42 39 39 35 32 19 19
0 0 0 0 0 0 0 0 0 0 0 0 0 0 3 3 10 6 6 6 10 13 16 16 13 13 16 19 23 23 19 26 26 26 13 13 13 19 39 42 48 48 48 45 35 35 32 26 13
0 0 0 0 0 0 0 0 0 0 0 0 3 3 3 6 6 6 6 6 6 6 6 10 13 13 13 10 10 10 10 13 16 13 0 0 0 0 3 3 13 26 48 42 32 32 29 19 13
0 0 0 0 0 0 0 0 0 0 0 0 3 3 6 6 6 6 6 6 6 6 6 6 6 6 6 10 10 10 10 10 6 6 0 0 0 0 0 0 0 6 13 16 16 23 16 10 0
0 0 0 0 0 0 0 0 0 0 0 0 3 3 6 6 6 6 6 6 6 6 6 6 6 3 3 3 3 6 10 10 6 3 3 0 0 0 0 0 0 0 0 3 3 6 3 0 0
0 0 0 0 0 0 0 0 0 0 0 0 3 6 6 6 6 6 6 6 3 3 3 3 3 3 3 3 3 3 0 0 3 6 3 3 0 0 0 0 0 3 3 0 0 0 0 0 0
0 0 0 0 0 0 0 0 0 0 0 0 3 6 6 6 6 6 3 3 3 3 3 3 3 3 3 3 0 0 0 0 0 0 3 3 0 0 0 0 0 3 3 0 0 3 0 0 0
0 0 0 0 0 0 0 0 0 0 0 0 0 0 3 3 3 0 0 0 0 0 0 0 3 3 3 3 0 0 0 0 0 0 0 0 0 0 0 0 0 0 3 0 0 0 0 0 0
0 0 0 0 0 0 0 0 0 0 0 0 0 0 3 0 0 0 0 0 0 3 3 0 0 0 0 0 0 0 0 0 0 0 0 0 0 0 0 0 0 0 0 0 0 0 0 0 0
0 0 0 0 0 0 0 0 0 0 0 0 0 0 0 0 0 0 0 0 0 0 0 0 0 0 0 0 0 0 0 0 0 0 0 0 0 0 0 0 0 0 0 0 0 0 0 0 0
0 0 0 0 0 0 0 0 0 0 0 0 0 0 0 0 0 0 0 0 0 0 0 0 0 0 0 0 0 0 0 0 0 0 0 0 0 0 0 0 0 0 0 0 0 0 0 0 0
0 0 0 0 0 0 0 0 0 0 0 0 0 0 0 0 0 0 0 0 0 0 0 0 0 0 0 0 0 0 0 0 0 0 0 0 0 0 0 0 0 0 0 0 0 0 0 0 0
0 0 0 0 0 0 0 0 0 0 0 0 0 0 0 0 0 0 0 0 0 0 0 0 0 0 0 0 0 0 0 0 0 0 0 0 0 0 0 0 0 0 0 0 0 0 0 0 0
0 0 0 0 0 0 0 0 0 0 0 0 0 0 0 0 0 0 0 0 0 0 0 0 0 0 0 0 0 0 0 0 0 0 0 0 0 0 0 0 0 0 0 0 0 0 0 0 0
0 0 0 0 0 0 0 0 0 0 0 0 0 0 0 0 0 0 0 0 0 0 0 0 0 0 0 0 0 0 0 0 0 0 0 0 0 0 0 0 0 0 0 0 0 0 0 0 0
0 0 0 0 0 0 0 0 0 0 0 0 0 0 0 0 0 0 0 0 0 0 0 0 0 0 0 0 0 0 0 0 0 0 0 0 0 0 0 0 0 0 0 0 0 0 0 0 0
0 0 0 0 0 0 0 0 0 0 0 0 0 0 0 0 0 0 0 0 0 0 0 0 0 0 0 0 0 0 0 0 0 0 0 0 0 0 0 0 0 0 0 0 0 0 0 0 0
0 0 0 0 0 0 0 0 0 0 0 0 0 0 0 0 0 0 0 0 0 0 0 0 0 0 0 0 0 0 0 0 0 0 0 0 0 0 0 0 0 0 0 0 0 0 0 0 0
0 0 0 0 0 0 0 0 0 0 0 0 0 0 0 0 0 0 0 0 0 0 0 0 0 0 0 0 0 0 0 0 0 0 0 0 0 0 0 0 0 0 0 0 0 0 0 0 0
0 0 0 0 0 0 0 0 0 0 0 0 0 0 0 0 0 0 0 0 0 0 0 0 0 0 0 0 0 0 0 0 0 0 0 0 0 0 0 0 0 0 0 0 0 0 0 0 0
0 0 0 0 0 0 0 0 0 0 0 0 0 0 0 0 0 0 0 0 0 0 0 0 0 0 0 0 0 0 0 0 0 0 0 0 0 0 0 0 0 0 0 0 0 0 0 0 0
0 0 0 0 0 0 0 0 0 0 0 0 0 0 0 0 0 0 0 0 0 0 0 0 0 0 0 0 0 0 0 0 0 0 0 0 0 0 0 0 0 0 0 0 0 0 0 0 0
0 0 0 0 0 0 0 0 0 0 0 0 0 0 0 0 0 0 0 0 0 0 0 0 0 0 0 0 0 0 0 0 0 0 0 0 0 0 0 0 0 0 0 0 0 0 0 0 0
0 0 0 0 0 0 0 0 0 0 0 0 0 0 0 0 0 0 0 0 0 0 0 0 0 0 0 0 0 0 0 0 0 0 0 0 0 0 0 0 0 0 0 0 0 0 0 0 0
Height
5793 5796 5799 5802 5805 5808 5812 5818 5822 5825 5827 5830 5831 5834 5836 5838 5839 5843 5844 5845 5846 5848 5850 5851 5853 5854 5856 5857 5858 5859 5860 5861 5862 5863 5864 5865 5865 5866 5867 5867 5868 5869 5869 5870 5870 5871 5871 5871 5872
5785 5788 5791 5794 5798 5801 5808 5813 5816 5819 5821 5824 5827 5830 5831 5832 5835 5837 5839 5841 5843 5845 5846 5848 5849 5851 5852 5853 5855 5856 5857 5858 5859 5860 5861 5862 5863 5863 5864 5865 5865 5866 5867 5868 5868 5869 5869 5870 5870
5777 5780 5784 5787 5791 5797 5803 5808 5811 5812 5815 5818 5822 5824 5827 5829 5831 5833 5835 5837 5839 5841 5842 5844 5845 5846 5848 5849 5851 5852 5853 5854 5855 5856 5857 5858 5859 5860 5861 5862 5863 5863 5864 5865 5866 5866 5867 5867 5868
5770 5773 5777 5782 5787 5793 5797 5801 5804 5806 5809 5813 5816 5819 5822 5825 5827 5829 5831 5833 5835 5837 5838 5839 5841 5842 5844 5845 5846 5848 5849 5850 5851 5852 5853 5854 5855 5856 5857 5858 5859 5860 5861 5862 5863 5863 5864 5864 5865
5762 5766 5770 5775 5781 5786 5790 5794 5797 5800 5804 5807 5811 5814 5817 5820 5822 5824 5826 5828 5830 5832 5834 5835 5836 5838 5839 5840 5842 5843 5844 5845 5847 5848 5848 5849 5851 5852 5853 5854 5855 5856 5857 5858 5859 5860 5860 5861 5862
5756 5760 5765 5769 5775 5779 5783 5787 5790 5794 5797 5801 5804 5808 5811 5814 5817 5819 5821 5823 5826 5827 5829 5830 5831 5833 5834 5835 5837 5838 5839 5841 5842 5843 5843 5844 5846 5847 5848 5849 5850 5851 5853 5854 5855 5856 5857 5857 5858
5751 5755 5759 5764 5768 5772 5777 5780 5784 5787 5791 5795 5798 5802 5805 5809 5811 5813 5816 5818 5820 5822 5824 5825 5826 5828 5829 5830 5831 5833 5834 5835 5836 5837 5838 5839 5840 5842 5843 5844 5845 5847 5848 5849 5850 5851 5852 5853 5854
5745 5749 5753 5758 5762 5766 5770 5773 5777 5781 5784 5788 5792 5796 5800 5803 5806 5808 5810 5812 5814 5816 5818 5820 5821 5822 5824 5825 5826 5827 5828 5829 5831 5832 5833 5834 5835 5836 5837 5839 5840 5841 5842 5844 5845 5846 5847 5848 5849
5739 5745 5748 5753 5756 5760 5764 5768 5772 5774 5778 5782 5786 5790 5794 5796 5799 5802 5804 5806 5809 5811 5812 5814 5815 5817 5818 5819 5820 5821 5822 5823 5825 5826 5827 5828 5829 5830 5832 5833 5834 5836 5837 5838 5839 5840 5841 5843 5844
5734 5739 5743 5746 5750 5754 5758 5762 5766 5769 5772 5776 5780 5784 5787 5790 5793 5796 5798 5800 5802 5804 5806 5808 5809 5810 5812 5813 5814 5815 5816 5817 5818 5819 5821 5822 5823 5824 5826 5827 5828 5830 5831 5832 5833 5834 5836 5837 5838
5729 5733 5737 5741 5745 5748 5752 5756 5759 5762 5766 5770 5774 5778 5781 5783 5786 5789 5791 5794 5796 5798 5800 5802 5803 5804 5805 5806 5807 5808 5810 5811 5812 5813 5814 5815 5816 5818 5819 5820 5822 5823 5824 5826 5827 5828 5829 5831 5832
5724 5728 5732 5736 5740 5743 5747 5750 5754 5756 5761 5765 5768 5771 5774 5777 5780 5782 5785 5787 5789 5791 5793 5795 5797 5798 5799 5800 5801 5802 5803 5804 5805 5806 5807 5808 5809 5811 5812 5813 5814 5816 5817 5819 5820 5821 5822 5824 5826
5720 5724 5728 5731 5735 5739 5742 5745 5748 5752 5755 5759 5762 5765 5768 5771 5774 5776 5778 5780 5783 5785 5787 5788 5790 5791 5792 5793 5794 5795 5796 5797 5798 5799 5800 5801 5802 5803 5804 5806 5807 5808 5810 5811 5813 5814 5815 5817 5818
5717 5720 5724 5727 5731 5734 5737 5741 5744 5747 5751 5754 5757 5760 5763 5766 5768 5770 5772 5774 5776 5778 5780 5782 5783 5784 5785 5786 5787 5788 5789 5790 5790 5791 5792 5793 5794 5795 5796 5798 5799 5800 5802 5803 5805 5806 5807 5809 5811
5714 5717 5721 5723 5727 5730 5734 5737 5740 5743 5746 5749 5752 5755 5758 5760 5762 5764 5766 5768 5770 5772 5774 5775 5777 5778 5779 5779 5780 5781 5781 5782 5783 5783 5784 5785 5786 5787 5788 5789 5791 5792 5793 5795 5796 5797 5799 5800 5802
5711 5714 5717 5721 5724 5726 5731 5733 5736 5739 5742 5744 5747 5750 5752 5754 5756 5758 5760 5763 5764 5766 5767 5769 5770 5771 5772 5773 5773 5773 5774 5774 5775 5775 5776 5777 5778 5778 5780 5781 5782 5783 5784 5785 5787 5789 5790 5791 5793
5708 5711 5714 5718 5721 5723 5726 5729 5732 5735 5737 5740 5743 5745 5747 5749 5751 5753 5755 5757 5758 5760 5761 5762 5763 5764 5765 5766 5766 5766 5766 5767 5767 5767 5768 5768 5769 5770 5771 5772 5773 5774 5775 5776 5778 5779 5781 5782 5784
5707 5710 5712 5715 5718 5721 5723 5726 5729 5731 5733 5736 5738 5741 5742 5744 5746 5748 5750 5751 5753 5754 5755 5756 5757 5757 5758 5758 5758 5758 5759 5758 5758 5759 5759 5760 5760 5761 5762 5763 5764 5765 5766 5767 5768 5769 5771 5772 5774
5705 5708 5710 5712 5715 5718 5720 5722 5725 5727 5730 5732 5734 5736 5738 5739 5741 5743 5744 5746 5747 5748 5749 5750 5750 5751 5751 5751 5751 5751 5751 5751 5750 5750 5750 5751 5751 5752 5753 5754 5755 5755 5756 5756 5757 5758 5760 5762 5764
5704 5706 5707 5710 5712 5714 5717 5719 5722 5723 5726 5728 5730 5731 5733 5734 5736 5738 5739 5740 5741 5742 5743 5743 5744 5744 5744 5744 5744 5743 5743 5743 5742 5742 5741 5741 5741 5742 5743 5744 5745 5745 5746 5746 5747 5748 5750 5752 5753
5703 5704 5706 5708 5710 5711 5714 5716 5718 5720 5721 5724 5725 5726 5728 5730 5731 5732 5733 5734 5735 5736 5736 5737 5737 5737 5737 5736 5736 5735 5735 5734 5734 5733 5732 5731 5731 5732 5732 5733 5734 5734 5735 5736 5737 5737 5739 5741 5743
5701 5702 5704 5705 5707 5708 5711 5712 5715 5716 5718 5719 5721 5722 5723 5725 5726 5727 5728 5729 5729 5730 5730 5730 5730 5729 5729 5728 5727 5727 5726 5726 5725 5724 5723 5722 5722 5722 5722 5723 5724 5724 5725 5725 5726 5727 5728 5730 5732
5700 5701 5702 5703 5703 5705 5707 5708 5712 5712 5714 5715 5716 5717 5718 5719 5720 5721 5722 5722 5723 5723 5723 5722 5722 5721 5721 5720 5719 5718 5717 5716 5715 5714 5714 5713 5713 5712 5712 5713 5713 5714 5714 5715 5716 5716 5717 5718 5720
5699 5699 5700 5700 5701 5703 5704 5704 5707 5708 5709 5710 5711 5712 5713 5714 5714 5715 5715 5716 5716 5716 5715 5715 5714 5713 5712 5711 5710 5709 5708 5707 5706 5705 5704 5703 5703 5703 5702 5703 5703 5704 5704 5705 5705 5705 5706 5707 5709
5697 5698 5698 5697 5698 5699 5700 5700 5703 5703 5704 5705 5706 5706 5707 5708 5708 5708 5709 5709 5708 5708 5708 5707 5706 5705 5704 5703 5701 5700 5698 5697 5696 5695 5694 5693 5693 5692 5692 5692 5693 5693 5694 5694 5694 5694 5695 5696 5697
5694 5695 5696 5695 5695 5696 5696 5696 5699 5698 5698 5699 5699 5700 5701 5701 5702 5702 5701 5701 5701 5700 5700 5699 5698 5697 5696 5694 5693 5691 5689 5687 5686 5684 5684 5683 5682 5682 5682 5682 5682 5682 5682 5682 5683 5683 5684 5685 5686
5691 5691 5692 5692 5691 5691 5692 5693 5694 5693 5693 5693 5693 5694 5694 5694 5694 5694 5694 5694 5693 5692 5691 5690 5689 5688 5687 5685 5683 5682 5680 5678 5676 5675 5674 5673 5672 5672 5671 5671 5671 5671 5671 5671 5671 5672 5672 5673 5674
5689 5688 5688 5688 5687 5687 5687 5688 5688 5688 5687 5687 5687 5687 5687 5687 5687 5687 5686 5686 5685 5684 5683 5682 5681 5679 5678 5676 5674 5672 5670 5668 5667 5665 5664 5663 5662 5661 5661 5661 5660 5660 5660 5659 5659 5660 5661 5661 5662
5685 5685 5684 5683 5683 5682 5682 5685 5683 5682 5681 5681 5681 5680 5680 5680 5679 5679 5678 5677 5676 5675 5674 5673 5672 5670 5669 5667 5665 5663 5661 5659 5658 5656 5655 5654 5652 5651 5650 5649 5649 5649 5648 5648 5647 5647 5648 5648 5649
5681 5680 5680 5680 5679 5677 5677 5681 5678 5676 5675 5674 5674 5674 5673 5672 5672 5671 5670 5669 5668 5666 5665 5664 5662 5661 5659 5658 5656 5654 5652 5650 5648 5646 5645 5644 5642 5641 5639 5638 5637 5636 5636 5636 5635 5635 5635 5636 5637
Wind_Speed
35 36 36 36 37 37 36 33 31 30 29 29 28 27 26 25 25 24 21 21 21 20 20 20 20 20 20 19 19 19 18 17 17 16 15 15 15 15 15 15 14 14 13 13 12 11 11 11 11
35 36 37 38 38 38 36 34 33 31 31 31 29 28 28 27 26 25 23 22 22 22 22 21 21 21 21 21 21 20 20 19 19 18 18 18 17 17 17 17 17 16 16 15 14 14 13 13 13
35 36 37 38 38 37 35 34 34 33 33 32 31 30 29 28 27 26 24 23 23 23 23 23 23 23 23 23 23 22 22 21 21 21 20 20 20 19 19 19 19 18 18 17 17 16 16 15 14
35 36 37 38 37 37 36 35 34 35 34 33 33 32 30 29 28 27 26 25 24 23 23 24 24 24 24 24 24 24 24 24 23 23 23 22 21 21 21 21 21 21 20 20 19 18 18 18 17
35 36 37 37 36 36 36 37 36 35 35 35 34 32 30 29 28 28 28 27 25 25 24 24 25 25 25 25 25 26 25 25 25 24 25 24 24 24 23 22 22 22 22 21 21 21 20 20 19
34 36 37 36 37 36 36 36 36 36 36 36 35 33 32 30 30 29 29 28 27 26 25 26 26 26 26 26 26 26 26 26 26 26 26 26 26 26 25 24 24 24 24 24 23 23 22 22 21
33 34 35 35 35 36 36 35 35 36 37 36 35 34 32 31 31 31 30 29 28 27 27 27 27 27 27 27 27 27 27 27 27 27 26 27 27 27 26 26 26 25 25 25 25 25 25 24 23
32 33 33 34 34 35 34 35 36 36 37 36 35 34 33 32 31 31 30 30 29 29 28 28 28 27 28 28 29 29 28 28 28 29 28 28 28 28 28 27 27 27 27 27 27 26 26 26 25
31 32 33 33 33 32 33 34 35 35 35 36 34 33 32 32 32 32 31 31 30 30 29 29 29 28 29 29 29 29 29 29 29 30 30 29 29 29 29 29 28 28 28 28 29 28 27 27 27
30 31 32 32 32 32 33 34 34 34 35 35 34 33 32 32 33 33 32 32 32 31 30 30 30 29 29 29 30 30 30 30 30 30 31 31 30 30 30 30 30 30 30 30 30 30 30 29 29
29 31 31 32 32 32 34 34 33 34 35 34 33 33 32 32 33 33 33 32 32 32 31 30 30 30 30 30 30 31 32 32 31 32 32 32 33 32 32 32 32 32 32 31 31 32 32 32 31
27 29 30 31 32 33 33 33 32 33 33 32 32 31 31 31 32 33 32 32 32 32 31 31 31 31 32 32 32 32 32 33 33 33 33 33 33 33 33 33 33 33 33 33 33 33 33 33 33
24 27 28 30 30 31 31 31 31 31 31 30 30 29 29 30 30 31 32 32 32 32 32 32 32 32 32 32 32 32 32 33 33 34 35 35 35 34 34 34 34 34 35 35 34 34 34 34 34
22 24 26 27 28 28 28 28 29 29 29 29 29 28 28 29 29 30 31 30 31 31 31 31 31 32 32 32 32 33 33 33 34 34 35 35 35 35 35 36 36 35 36 37 37 36 36 36 36
21 23 24 25 25 25 26 27 27 28 28 28 27 27 28 28 29 29 30 30 30 30 30 31 31 31 32 32 33 33 33 33 33 34 35 35 35 35 36 37 37 37 37 37 38 38 39 39 39
20 22 23 24 24 24 24 24 25 26 27 27 27 26 26 28 29 29 29 29 29 30 30 31 31 32 32 33 34 34 34 33 34 35 35 35 35 35 36 36 36 38 38 39 39 40 41 41 40
19 21 22 22 22 22 22 23 24 24 26 27 26 26 26 28 28 28 28 29 29 30 30 31 31 32 32 33 34 34 35 34 34 34 35 36 37 37 37 37 38 38 39 41 41 41 42 42 42
16 19 20 20 21 21 22 22 23 23 24 25 26 26 26 27 28 28 28 29 29 30 30 31 31 31 32 32 33 34 34 34 35 35 36 37 38 38 39 39 39 39 40 41 42 43 42 43 44
14 16 18 19 20 20 21 21 22 23 24 24 25 25 26 26 27 27 27 28 29 29 30 30 31 32 32 33 33 34 34 35 36 37 37 37 38 39 40 40 40 40 40 41 42 43 44 44 45
12 14 16 18 19 19 20 21 21 21 22 24 24 25 25 25 25 26 26 28 28 29 30 30 31 32 33 34 34 34 35 36 37 38 38 39 39 40 40 41 41 42 41 42 42 43 44 45 46
11 13 15 16 18 20 20 20 21 21 21 22 24 24 25 25 25 25 26 27 28 29 30 31 32 33 34 35 36 36 36 36 37 38 38 38 39 39 41 42 42 43 43 43 43 43 44 46 46
11 13 14 15 17 19 20 21 21 22 22 23 24 24 25 26 26 27 27 28 28 29 30 32 33 34 35 36 36 36 36 37 37 37 37 38 39 39 40 41 42 42 43 43 43 44 44 45 46
10 12 14 16 17 18 19 21 21 22 23 23 24 25 25 26 27 27 28 29 30 31 32 33 34 35 36 37 37 38 38 38 38 38 38 38 39 39 39 40 40 40 41 42 42 43 45 45 45
11 12 14 16 17 18 19 21 21 22 23 24 25 25 26 27 27 28 29 30 31 32 33 34 35 36 37 37 38 38 39 39 39 39 39 39 39 40 40 40 40 41 41 41 42 43 44 45 45
12 13 14 15 16 17 18 21 22 23 24 25 26 27 27 28 28 28 30 31 32 32 34 35 36 36 37 38 38 38 39 39 39 39 39 39 39 39 39 40 40 40 41 41 42 42 42 43 45
13 14 15 17 17 17 18 20 20 22 24 26 27 28 29 29 29 30 31 32 33 34 35 35 36 36 37 38 39 39 39 39 39 39 39 39 39 39 39 39 40 41 41 42 42 42 42 42 44
15 15 16 18 19 19 19 19 19 21 23 25 27 28 30 31 31 32 33 33 34 34 35 35 36 36 37 38 38 39 39 39 39 39 39 38 38 39 39 40 41 41 41 42 43 42 43 44 45
16 16 17 19 20 21 21 20 20 20 22 24 26 27 29 30 31 32 33 34 34 34 35 35 36 36 37 37 37 38 38 38 37 38 38 38 38 38 39 40 40 41 41 42 42 43 43 44 46
17 17 18 20 21 22 22 21 21 22 22 23 25 26 28 29 30 31 32 33 34 35 35 36 36 36 37 37 37 37 37 38 38 38 37 37 37 38 38 39 40 40 40 40 41 42 44 43 44
17 18 19 20 22 23 24 22 22 23 24 25 26 26 27 29 30 31 31 32 33 34 35 36 37 37 37 37 37 36 37 37 37 37 37 37 37 37 37 38 39 39 39 39 40 41 41 41 42
Wind_Direction
240 237 236 235 235 236 237 237 237 236 237 238 239 240 241 243 246 248 248 247 247 247 247 248 250 251 253 254 254 254 254 254 253 252 252 252 252 252 251 250 249 249 248 247 246 245 247 248 249
238 236 235 234 234 236 237 237 238 238 239 239 240 240 241 243 246 248 249 248 248 249 248 249 250 250 252 254 255 256 257 256 256 254 255 255 255 254 252 252 251 251 251 250 249 249 250 252 253
237 236 235 235 235 236 237 238 239 238 239 240 240 240 241 243 245 247 249 250 250 251 251 251 251 252 253 254 255 257 258 258 257 256 256 257 256 256 255 254 253 252 253 254 254 253 253 255 256
235 234 234 235 236 237 237 237 239 239 239 240 241 241 242 244 247 248 249 250 251 251 252 253 253 254 254 255 256 257 258 259 258 258 257 258 258 258 257 256 254 253 253 254 256 255 255 255 255
235 234 235 236 235 236 236 237 238 239 240 240 241 243 243 244 245 247 248 249 250 252 253 254 254 254 254 255 256 256 257 257 257 259 258 257 258 258 258 257 256 254 254 255 256 256 255 255 255
235 235 237 237 236 235 234 236 238 239 239 240 241 242 243 244 244 246 248 250 251 252 253 254 254 254 255 255 255 255 257 257 258 258 260 258 257 257 258 257 257 256 255 255 256 257 256 256 256
236 234 236 235 234 235 234 235 237 239 240 241 242 243 243 244 245 246 248 250 251 252 253 254 255 255 255 256 256 255 256 257 258 258 260 259 257 257 257 257 257 257 256 256 256 256 256 256 256
235 235 235 234 234 236 235 235 237 239 241 242 242 243 243 244 245 247 248 250 251 253 254 254 254 255 255 256 257 257 256 256 257 258 259 259 257 258 258 258 257 257 257 257 257 256 255 256 256
235 234 233 233 235 236 235 235 237 240 242 242 243 245 245 245 246 247 249 250 252 253 254 254 255 256 256 256 257 257 257 257 258 259 258 259 257 257 258 258 258 258 258 257 257 257 256 256 257
235 233 232 233 233 234 234 234 237 240 242 242 242 243 245 245 246 247 249 250 252 252 253 254 256 256 257 258 258 257 257 258 258 259 259 259 258 257 258 258 258 259 259 258 257 256 257 257 257
236 233 232 232 233 234 234 235 237 239 241 242 243 244 245 246 247 248 249 250 251 252 252 253 255 256 257 258 259 259 258 259 259 260 259 260 259 258 258 259 258 258 258 258 257 256 256 257 257
236 233 231 232 234 235 236 235 238 239 240 241 242 244 245 245 246 248 249 250 251 251 252 253 255 256 257 259 260 260 260 261 261 261 261 260 261 260 259 259 259 258 257 257 258 258 257 257 257
236 232 231 232 235 237 238 238 238 239 240 240 241 242 244 245 246 247 249 249 250 251 252 254 255 256 257 259 259 260 262 262 262 263 263 263 261 260 260 259 259 259 258 258 258 258 257 257 257
236 233 231 233 233 236 237 238 238 237 238 239 239 241 244 246 247 246 247 249 250 251 252 253 254 255 257 259 261 262 263 264 264 264 263 263 263 261 260 260 260 260 259 258 258 258 258 258 258
238 232 231 233 233 235 236 236 236 235 237 238 239 241 244 246 246 246 247 249 251 253 254 255 255 257 258 260 262 264 265 265 265 263 263 263 263 262 262 261 261 261 260 259 259 258 259 258 258
237 232 232 231 231 232 234 234 234 234 236 237 239 240 243 245 246 247 249 249 251 254 255 256 257 258 259 261 264 266 267 266 264 264 263 263 263 263 262 262 262 262 260 260 260 259 259 259 258
237 235 233 230 230 232 236 235 234 235 236 238 238 241 244 246 247 248 250 251 253 255 256 257 258 259 261 263 265 266 267 267 265 265 264 263 263 262 263 263 263 263 262 262 262 261 260 258 258
241 239 235 232 229 232 235 235 237 237 238 238 239 242 246 248 250 250 251 252 254 256 256 257 259 261 262 264 266 267 267 267 266 266 265 264 263 263 263 263 264 264 264 264 263 261 261 259 258
244 241 235 232 232 234 236 237 238 239 240 241 242 244 247 249 250 251 253 254 256 258 258 259 261 263 264 266 267 268 268 269 269 268 268 267 265 264 264 263 264 265 265 265 263 261 260 260 258
241 238 235 234 236 236 235 236 238 242 242 243 244 245 248 250 251 253 255 256 258 260 261 263 265 266 267 269 271 272 272 272 272 272 272 270 267 267 266 265 265 265 265 265 264 262 261 260 259
246 241 239 239 239 240 239 237 239 244 245 245 247 247 248 250 252 255 257 258 260 263 265 266 268 270 271 272 273 275 275 275 274 274 274 273 270 270 269 267 268 268 267 266 265 264 262 261 259
254 250 247 247 244 243 245 246 242 246 248 249 250 251 252 253 256 257 259 261 263 265 267 269 271 272 274 274 275 276 277 277 276 276 275 275 273 273 272 270 269 268 268 267 266 265 263 261 260
262 259 255 253 250 249 250 252 247 249 250 252 254 254 255 256 259 260 261 263 265 267 269 271 272 274 276 277 277 278 278 278 277 276 275 274 274 273 273 271 269 268 268 268 267 266 264 262 261
270 267 263 258 256 254 252 255 254 255 254 255 256 256 257 259 261 262 264 266 267 269 271 272 273 275 276 278 279 279 279 278 277 277 275 274 274 273 272 271 269 268 268 268 267 267 265 263 261
275 271 267 264 262 262 259 258 260 260 259 257 258 260 261 262 264 265 266 268 270 271 273 273 275 276 277 278 279 280 280 280 278 277 277 276 275 274 273 272 270 269 267 268 268 266 264 263 261
277 273 269 270 269 268 267 268 269 266 263 261 260 261 263 265 266 267 268 270 272 273 274 274 275 277 278 279 280 280 281 281 280 279 279 278 275 274 273 272 271 270 268 268 268 267 265 264 263
277 273 270 270 271 272 273 274 271 270 267 265 264 264 265 267 267 269 270 272 274 275 275 276 277 278 279 280 281 281 282 282 281 280 279 279 278 276 275 273 271 270 270 270 268 266 265 264 263
277 275 273 272 274 274 275 276 276 275 273 270 269 268 268 269 270 270 271 273 274 275 276 277 278 279 281 281 282 282 282 282 282 281 280 280 280 278 276 274 272 271 270 270 269 267 266 266 264
277 276 274 272 273 275 276 277 280 280 277 274 273 273 272 272 272 273 274 274 275 276 277 278 279 280 281 282 283 283 283 282 282 281 280 280 280 279 278 275 273 272 272 271 269 268 267 266 264
276 275 274 274 274 275 276 277 279 280 278 276 276 276 275 275 275 276 277 277 277 278 278 279 279 280 282 283 284 284 284 284 283 282 281 281 281 281 279 276 274 273 272 271 271 270 269 266 264